FW5436 Weather Reports


time (UTC)temp
C
wind
direction
speed
KPH
gust
KPH
rain 1hr
cm
rain 24hr
cm
rain mn
cm
humidity
%
barometer
mb
20260508014415 13 45 3.2 9.7 0.10 0.10 1.75 96 995.3
20260508013904 13 68 3.2 9.7 0.05 0.05 1.70 96 995.5
20260508013354 13 90 3.2 11.3 0.03 0.03 1.68 96 995.5
20260508012844 13 68 6.4 11.3 0.03 0.03 1.68 96 995.6
20260508012333 13 68 3.2 11.3 0.03 0.03 1.68 96 995.6
20260508011824 13 68 3.2 11.3 0.03 0.03 1.68 96 995.7
20260508011313 13 45 3.2 11.3 0.03 0.03 1.68 96 995.6
20260508010804 13 45 3.2 9.7 0.00 0.00 1.65 95 995.9
20260508010254 13 45 1.6 11.3 0.00 0.00 1.65 95 995.6
20260508005743 13 68 3.2 11.3 0.00 0.00 1.65 95 995.7
20260508005233 13 23 4.8 11.3 0.00 0.00 1.65 95 995.8
20260508004723 13 68 3.2 11.3 0.00 0.00 1.65 95 995.9
20260508004213 13 23 6.4 11.3 0.00 0.00 1.65 94 996.1
20260508003703 13 45 3.2 14.5 0.00 0.00 1.65 94 996.0
20260508003152 13 45 4.8 14.5 0.00 0.00 1.65 94 996.1
20260508002642 13 90 6.4 14.5 0.00 0.00 1.65 94 996.1
20260508002132 14 45 6.4 12.9 0.00 0.00 1.65 93 996.2
20260508001111 14 45 6.4 12.9 0.00 0.00 1.65 93 996.5
20260508000618 14 113 8.0 14.5 0.00 0.00 1.65 93 996.5
20260508000053 14 90 6.4 22.5 0.00 0.00 1.65 93 996.4
20260507235544 14 68 11.3 22.5 0.00 0.00 1.65 93 996.7
20260507235031 14 68 6.4 17.7 0.00 0.00 1.65 93 996.6
20260507234520 14 0 6.4 14.5 0.00 0.00 1.65 93 996.8
20260507234011 15 23 4.8 14.5 0.00 0.00 1.65 93 997.0
20260507232951 15 23 6.4 14.5 0.00 0.00 1.65 94 996.9
20260507232441 15 45 6.4 11.3 0.00 0.00 1.65 94 996.6
20260507231930 15 23 3.2 11.3 0.00 0.00 1.65 94 996.5
20260507231420 15 68 4.8 17.7 0.00 0.00 1.65 93 996.4
20260507230910 15 45 3.2 17.7 0.00 0.00 1.65 93 996.5
20260507230359 15 45 3.2 12.9 0.00 0.00 1.65 93 996.2
20260507225850 15 68 6.4 12.9 0.00 0.00 1.65 92 996.1
20260507225340 15 68 3.2 12.9 0.00 0.00 1.65 92 995.8
20260507224829 15 68 3.2 9.7 0.00 0.00 1.65 91 995.8
20260507224319 15 0 3.2 9.7 0.00 0.00 1.65 91 996.0
20260507223810 15 68 3.2 6.4 0.00 0.00 1.65 90 995.8
20260507223259 16 45 3.2 6.4 0.00 0.00 1.65 91 995.7
20260507222749 16 90 1.6 3.2 0.00 0.00 1.65 91 995.8
20260507222239 16 68 1.6 6.4 0.00 0.00 1.65 90 995.6
20260507221728 16 45 3.2 6.4 0.00 0.00 1.65 90 995.8
20260507221218 16 45 3.2 3.2 0.00 0.00 1.65 90 995.9
20260507220708 16 45 1.6 3.2 0.00 0.00 1.65 90 995.8
20260507215648 16 45 0.0 3.2 0.00 0.00 1.65 89 996.0
20260507215138 16 113 0.0 0.0 0.00 0.00 1.65 89 995.7
20260507214627 16 45 0.0 6.4 0.00 0.00 1.65 89 995.6
20260507214117 16 45 0.0 6.4 0.00 0.00 1.65 89 995.4
20260507213608 16 45 0.0 3.2 0.00 0.00 1.65 89 995.4
20260507213057 16 45 1.6 3.2 0.00 0.00 1.65 89 995.8
20260507212547 16 45 1.6 3.2 0.00 0.00 1.65 88 995.5
20260507212037 16 0 0.0 3.2 0.00 0.00 1.65 88 995.3
20260507211527 16 68 0.0 3.2 0.00 0.00 1.65 87 995.2
20260507211017 16 0 0.0 0.0 0.00 0.00 1.65 87 995.2
20260507210512 16 0 0.0 0.0 0.00 0.00 1.65 87 995.5
20260507205956 16 0 0.0 3.2 0.00 0.00 1.65 86 995.6
20260507205447 16 0 0.0 3.2 0.00 0.00 1.65 86 995.6
20260507204936 16 68 1.6 3.2 0.00 0.00 1.65 86 995.6
20260507203916 16 68 3.2 6.4 0.00 0.00 1.65 86 995.6
20260507203405 16 293 3.2 6.4 0.00 0.00 1.65 86 995.8
20260507202349 16 45 3.2 6.4 0.00 0.00 1.65 86 996.3
20260507201326 16 90 3.2 9.7 0.00 0.00 1.65 86 996.3
20260507200815 16 45 3.2 9.7 0.00 0.00 1.65 86 996.2
20260507195754 16 45 1.6 9.7 0.00 0.00 1.65 86 996.2
20260507195254 16 113 4.8 9.7 0.00 0.00 1.65 86 996.1
20260507194224 17 45 3.2 14.5 0.00 0.00 1.65 85 996.2
20260507193714 16 68 3.2 17.7 0.00 0.00 1.65 85 996.1
20260507193204 16 68 8.0 17.7 0.00 0.00 1.65 86 996.1
20260507192653 16 68 6.4 11.3 0.00 0.00 1.65 86 996.0
20260507192144 16 45 3.2 11.3 0.00 0.00 1.65 86 995.7
20260507191635 16 68 3.2 12.9 0.00 0.00 1.65 86 995.6
20260507191124 16 113 6.4 12.9 0.00 0.00 1.65 86 995.5
20260507190117 16 23 3.2 11.3 0.00 0.00 1.65 86 995.3
20260507185554 16 270 3.2 12.9 0.00 0.00 1.65 86 995.5
20260507185043 17 0 4.8 12.9 0.00 0.00 1.65 86 996.0
20260507184532 17 90 4.8 17.7 0.00 0.00 1.65 85 995.9
20260507183002 17 68 4.8 9.7 0.00 0.00 1.65 86 995.6
20260507182452 16 45 3.2 12.9 0.00 0.00 1.65 86 995.6
20260507181939 16 68 3.2 12.9 0.00 0.00 1.65 86 995.8
20260507181430 16 23 4.8 17.7 0.00 0.00 1.65 86 996.1
20260507180411 16 68 3.2 12.9 0.00 0.00 1.65 87 996.1
20260507175902 16 158 4.8 12.9 0.00 0.00 1.65 87 996.1
20260507175352 16 23 6.4 14.5 0.00 0.00 1.65 87 996.3
20260507174846 16 23 6.4 14.5 0.00 0.00 1.65 87 996.4
20260507174331 16 68 8.0 17.7 0.00 0.00 1.65 87 996.5
20260507173826 16 68 4.8 17.7 0.00 0.00 1.65 87 996.2
20260507172801 16 135 6.4 17.7 0.00 0.00 1.65 87 995.9
20260507172250 16 338 3.2 17.7 0.00 0.00 1.65 87 995.6
20260507171740 16 158 4.8 17.7 0.00 0.00 1.65 87 995.8
20260507171230 16 180 6.4 17.7 0.00 0.00 1.65 87 995.5
20260507170209 16 68 3.2 14.5 0.00 0.00 1.65 88 995.5
20260507165700 16 23 4.8 14.5 0.00 0.00 1.65 88 995.5
20260507165149 16 338 8.0 17.7 0.00 0.00 1.65 88 995.4
20260507164639 16 23 6.4 17.7 0.00 0.00 1.65 88 995.3
20260507164132 16 90 6.4 14.5 0.00 0.00 1.65 88 995.4
20260507163619 16 68 6.4 17.7 0.00 0.00 1.65 88 995.7
20260507163110 16 45 4.8 20.9 0.00 0.00 1.65 88 995.7
20260507162559 16 68 6.4 20.9 0.00 0.00 1.65 88 995.7
20260507162049 16 45 6.4 17.7 0.00 0.00 1.65 88 995.7
20260507161539 16 68 8.0 12.9 0.00 0.00 1.65 89 995.7
20260507160007 16 68 6.4 17.7 0.00 0.00 1.65 89 996.0
20260507155458 16 23 4.8 17.7 0.00 0.00 1.65 89 995.9
20260507154437 16 23 6.4 11.3 0.00 0.00 1.65 89 996.3
20260507153927 16 90 3.2 12.9 0.00 0.00 1.65 89 996.1
20260507153417 16 68 4.8 12.9 0.00 0.00 1.65 89 996.4
20260507152907 16 45 3.2 12.9 0.00 0.00 1.65 89 996.5
20260507151847 16 68 3.2 17.7 0.00 0.00 1.65 90 997.0
20260507151337 16 68 8.0 17.7 0.00 0.00 1.65 90 997.1
20260507150826 16 68 1.6 11.3 0.00 0.00 1.65 90 996.9
20260507145256 16 68 6.4 14.5 0.00 0.00 1.65 90 997.6
20260507144236 16 45 4.8 14.5 0.00 0.00 1.65 91 997.0
20260507143726 16 45 6.4 14.5 0.00 0.00 1.65 91 996.8
20260507143215 16 68 3.2 12.9 0.00 0.00 1.65 91 996.5
20260507142705 16 135 3.2 14.5 0.00 0.00 1.65 92 996.3
20260507141644 16 338 3.2 9.7 0.00 0.00 1.65 92 996.2
20260507141135 15 113 3.2 9.7 0.00 0.00 1.65 92 996.6
20260507140626 15 68 3.2 11.3 0.00 0.00 1.65 93 996.5
20260507140114 15 68 3.2 11.3 0.00 0.00 1.65 93 996.4
20260507135605 15 68 3.2 12.9 0.00 0.00 1.65 93 996.7
20260507135059 15 45 3.2 12.9 0.00 0.00 1.65 93 996.4
20260507134544 15 0 4.8 12.9 0.00 0.00 1.65 93 996.5
20260507134034 15 68 4.8 9.7 0.00 0.00 1.65 93 996.5
20260507133524 15 45 3.2 11.3 0.00 0.00 1.65 93 996.6
20260507132504 15 45 3.2 14.5 0.00 0.00 1.65 93 997.0
20260507131953 15 68 4.8 14.5 0.00 0.00 1.65 93 997.5
20260507131444 15 68 4.8 14.5 0.00 0.00 1.65 93 997.9
20260507130933 15 68 4.8 20.9 0.00 0.00 1.65 93 997.7
20260507130428 15 23 6.4 20.9 0.00 0.00 1.65 93 997.7
20260507125916 15 90 3.2 14.5 0.00 0.00 1.65 93 997.2
20260507125402 15 0 6.4 14.5 0.00 0.00 1.65 92 997.0
20260507124343 15 45 3.2 22.5 0.00 0.00 1.65 93 996.8
20260507123832 15 113 6.4 22.5 0.00 0.00 1.65 93 996.7
20260507123322 15 68 4.8 17.7 0.00 0.00 1.65 93 996.3
20260507122812 15 135 6.4 17.7 0.00 0.00 1.65 93 996.6
20260507122306 15 338 4.8 17.7 0.00 0.00 1.65 94 996.6
20260507121751 14 68 4.8 17.7 0.00 0.00 1.65 94 996.4
20260507121241 14 113 8.0 17.7 0.00 0.00 1.65 94 996.5
20260507120221 14 45 9.7 17.7 0.00 0.00 1.65 95 996.5
20260507115711 15 90 4.8 17.7 0.00 0.00 1.65 95 995.9
20260507115201 15 0 4.8 17.7 0.00 0.00 1.65 95 995.7
20260507114651 14 338 6.4 17.7 0.00 0.00 1.65 95 995.5
20260507114144 14 45 6.4 14.5 0.00 0.00 1.65 95 995.2
20260507113631 14 248 4.8 17.7 0.00 0.00 1.65 95 995.0
20260507113121 14 68 6.4 17.7 0.00 0.00 1.65 95 995.5
20260507112610 14 338 3.2 17.7 0.00 0.00 1.65 95 994.9
20260507111549 14 113 6.4 17.7 0.00 0.00 1.65 95 994.4
20260507110529 14 45 4.8 22.5 0.00 0.00 1.65 95 995.2
20260507105509 14 90 8.0 17.7 0.00 0.00 1.65 95 995.6
20260507104959 14 45 6.4 17.7 0.00 0.00 1.65 95 995.8
20260507104449 14 23 6.4 17.7 0.00 0.00 1.65 95 996.1
20260507103939 14 45 6.4 17.7 0.00 0.00 1.65 95 995.9
20260507103429 14 113 6.4 17.7 0.00 0.00 1.65 95 996.3
20260507102408 14 0 6.4 17.7 0.00 0.00 1.65 95 996.1
20260507101858 14 90 6.4 17.7 0.00 0.00 1.65 95 995.9
20260507101349 14 45 6.4 17.7 0.00 0.00 1.65 95 995.3
20260507100838 14 90 6.4 14.5 0.00 0.00 1.65 94 994.7
20260507100328 14 23 6.4 14.5 0.00 0.00 1.65 94 995.0
20260507095817 14 315 6.4 14.5 0.00 0.00 1.65 94 994.2
20260507094758 14 68 6.4 17.7 0.00 0.00 1.65 94 995.2
20260507094247 15 23 6.4 17.7 0.00 0.00 1.65 94 995.4
20260507093737 15 113 6.4 17.7 0.00 0.00 1.65 94 995.4
20260507093227 15 90 6.4 17.7 0.00 0.00 1.65 94 995.2
20260507092717 15 90 6.4 17.7 0.00 0.00 1.65 93 995.5
20260507092206 15 315 6.4 14.5 0.00 0.00 1.65 93 995.0
20260507091701 15 68 6.4 17.7 0.00 0.00 1.65 93 994.6
20260507091146 15 0 6.4 17.7 0.00 0.00 1.65 93 995.4
20260507090638 15 23 4.8 17.7 0.00 0.00 1.65 93 995.3
20260507085616 16 23 11.3 14.5 0.00 0.00 1.65 93 996.3
20260507085106 16 45 3.2 12.9 0.00 0.00 1.65 93 995.0
20260507084555 16 90 1.6 6.4 0.00 0.00 1.65 92 994.7
20260507084046 16 135 0.0 3.2 0.00 0.00 1.65 92 993.6
20260507083537 16 135 1.6 9.7 0.00 0.00 1.65 92 993.4
20260507083025 16 315 1.6 12.9 0.00 0.00 1.65 92 994.4
20260507082515 16 45 3.2 14.5 0.00 0.00 1.65 92 997.1
20260507082010 16 315 3.2 14.5 0.00 0.00 1.65 91 998.0
20260507081455 17 68 4.8 17.7 0.00 0.00 1.65 91 998.2
20260507080945 17 68 4.8 20.9 0.00 0.00 1.65 91 998.3
20260507080434 17 45 8.0 20.9 0.00 0.00 1.65 91 998.3
20260507075414 17 45 6.4 22.5 0.00 0.00 1.65 91 997.7
20260507074904 17 68 9.7 22.5 0.00 0.00 1.65 91 997.6
20260507072823 17 68 6.4 22.5 0.00 0.00 1.65 92 997.0
20260507072313 17 45 9.7 22.5 0.00 0.00 1.65 93 997.2
20260507071803 17 45 12.9 20.9 0.00 0.00 1.65 94 997.1
20260507071254 17 68 6.4 22.5 0.00 0.00 1.65 94 996.5
20260507070743 17 45 6.4 22.5 0.00 0.00 1.65 95 996.2
20260507065724 17 90 4.8 17.7 0.00 0.00 1.65 96 995.7
20260507065212 17 68 4.8 17.7 0.00 0.00 1.65 96 996.2
20260507064702 17 0 6.4 20.9 0.00 0.00 1.65 96 996.6
20260507064152 17 45 4.8 25.7 0.00 0.00 1.65 96 996.3
20260507063642 17 68 11.3 25.7 0.00 0.00 1.65 96 996.8
20260507063132 17 90 9.7 25.7 0.00 0.00 1.65 96 996.6
20260507062622 17 45 11.3 17.7 0.00 0.00 1.65 97 996.3
20260507062111 17 90 6.4 17.7 0.00 0.00 1.65 97 996.2
20260507061602 17 293 6.4 17.7 0.00 0.00 1.65 97 995.9
20260507061051 17 68 6.4 17.7 0.00 0.00 1.65 97 995.9
20260507060542 17 68 3.2 17.7 0.00 0.00 1.65 97 995.6
20260507060031 17 45 3.2 9.7 0.00 0.00 1.65 97 996.1
20260507055521 17 68 4.8 9.7 0.00 0.00 1.65 97 995.8
20260507055011 17 135 3.2 6.4 0.00 0.00 1.65 97 996.0
20260507054500 17 135 1.6 11.3 0.00 0.00 1.65 97 995.5
20260507053446 17 203 1.6 3.2 0.00 0.00 1.65 97 995.4
20260507052829 17 23 3.2 9.7 0.03 1.80 1.65 97 995.8
20260507052319 17 68 3.2 9.7 0.03 1.80 1.65 97 996.1
20260507051808 17 45 3.2 9.7 0.03 1.80 1.65 97 996.3
20260507051258 17 0 3.2 9.7 0.03 1.80 1.65 97 996.5
20260507050749 17 68 4.8 6.4 0.05 1.80 1.65 97 996.7
20260507050238 17 68 4.8 6.4 0.05 1.80 1.65 97 996.7
20260507045728 17 45 3.2 9.7 0.10 1.80 1.65 97 996.5
20260507045218 17 23 1.6 9.7 0.13 1.80 1.65 97 996.7
20260507043647 17 90 3.2 6.4 0.15 1.78 1.63 97 997.3
20260507043137 17 90 1.6 3.2 0.15 1.78 1.63 97 997.3
20260507042632 17 68 0.0 3.2 0.18 1.78 1.63 97 997.1
20260507042117 17 68 0.0 3.2 0.18 1.78 1.63 96 997.3
20260507041607 17 23 1.6 6.4 0.36 1.78 1.63 96 997.6
20260507041057 17 180 1.6 6.4 0.61 1.75 1.60 96 997.9
20260507040547 17 113 1.6 6.4 1.12 1.75 1.60 96 998.0
20260507035526 17 113 1.6 3.2 1.63 1.70 1.55 96 997.2
20260507035018 17 90 1.6 6.4 1.60 1.68 1.52 96 997.0
20260507034513 17 68 0.0 6.4 1.55 1.65 1.50 96 997.1
20260507033956 17 248 0.0 3.2 1.52 1.63 1.47 96 996.9
20260507033446 17 68 1.6 3.2 1.52 1.63 1.47 96 997.1
20260507032936 17 68 1.6 6.4 1.52 1.63 1.47 96 997.4
20260507031915 18 90 4.8 17.7 1.47 1.55 1.42 95 998.2
20260507031405 18 90 3.2 25.7 1.35 1.42 1.27 95 998.1
20260507030344 18 45 9.7 25.7 0.38 0.46 0.30 92 1000.1
20260507025834 19 68 9.7 20.9 0.05 0.13 0.13 90 999.2
20260507025325 22 68 9.7 20.9 0.03 0.10 0.10 87 999.4
20260507024814 21 180 6.4 20.9 0.03 0.10 0.10 90 996.8
20260507024304 21 0 6.4 17.7 0.03 0.10 0.10 91 996.4
20260507023754 21 45 8.0 22.5 0.03 0.10 0.10 91 996.8
20260507023244 21 113 9.7 22.5 0.03 0.10 0.10 92 996.9
20260507022735 21 90 4.8 25.7 0.03 0.10 0.10 92 996.8
20260507022225 20 90 6.4 25.7 0.03 0.10 0.10 92 996.6
20260507021713 20 45 8.0 20.9 0.00 0.05 0.05 92 996.5
20260507021203 20 180 8.0 24.1 0.00 0.05 0.05 92 996.7
20260507020143 20 158 6.4 24.1 0.00 0.05 0.05 93 996.5
20260507015633 20 315 8.0 25.7 0.00 0.05 0.05 93 996.2